STARLINK-2091 (47678 NORAD) Tracking and Keplerian Element Data

This shows tracking and keplerian element data for the satellite.

Feedback or suggestion? Click here.




ElementValue
Catalog47678
NameSTARLINK-2091
Epoch Orbit177
Epoch Day105.91667824
Epoch Year2021
RAAN169.0627
Inclination53.0457
Eccentricity0.0002081
Argument of Perigee39.8867
Mean Anonmoly15.8614
Mean Motion15.732214
Decay Rate0.00014064
L11 47678U 21012BL 21105.91667824 .00014064 00000-0 10435-3 0 9991
L22 47678 53.0457 169.0627 0002081 39.8867 15.8614 15.73221400 1776

Live tracking and technical data element details for STARLINK-2091 (NORAD 47678). STARLINK-2091 can be tracked NOW for your location showing map with azimuth and elevation plus other details from your city location.

Track the satellite on the map from your city or location and see movement details for azimuth, elevation, latitude, longitude, range, height, and movement on the map or in text.







IsCatalogInMostPopularTable: catalog: 47678, numindb: 19
Update: records affected: 1



GetName: 47678 STARLINK-2091

Hit Count: updated at: Fri, 16 Apr 2021 10:35:20 GMT